Altoona, PA

12:57 AM EST on November 19, 2019 (GMT -0500)
Altoona-Blair County

Weather History for KAOO - September, 2019

Change the Weather History Date:

Monday, September 23, 2019

  Actual Average Record
Temperature  
Mean Temperature 72 °F 59 °F  
Max Temperature 82 °F 69 °F 90 °F (1970)
Min Temperature 61 °F 48 °F 31 °F (1974)
Degree Days  
Heating Degree Days 0 7  
Month to date heating degree days 20 89  
Since 1 July heating degree days 29 121  
Cooling Degree Days 7 1  
Month to date cooling degree days 78 42  
Year to date cooling degree days 723 521  
Growing Degree Days 22 (Base 50)    
Moisture  
Dew Point 61 °F    
Average Humidity 69    
Maximum Humidity 87    
Minimum Humidity 51    
Precipitation  
Precipitation 0.02 in 0.11 in 0.67 in (1955)
Month to date precipitation 1.05 2.70  
Year to date precipitation 30.74 26.63  
Sea Level Pressure  
Sea Level Pressure 29.92 in    
Wind  
Wind Speed 10 mph (SW)    
Max Wind Speed 25 mph    
Max Gust Speed 35 mph    
Visibility 10 miles    
Events Rain    
T = Trace of Precipitation, MM = Missing Value Source: NWS Daily Summary

Daily Weather History Graph

Daily Weather History Graph

Search for Another Location

Airport or City:

Astronomy

Sep. 23, 2019 Rise Set
Actual Time 7:01 AM EDT 7:09 PM EDT
Civil Twilight 6:34 AM EDT 7:36 PM EDT
Nautical Twilight 6:02 AM EDT 8:07 PM EDT
Astronomical Twilight 5:30 AM EDT 8:40 PM EDT
Moon 12:42 AM EDT (9/23) 4:01 PM EDT (9/23)
Length of Visible Light 13h 01m
Length of Day
12h 07m
Waning Crescent, 33% of the Moon is Illuminated
Sep 23
Waning Crescent
Sep 28
New
Oct 5
First Quarter
Oct 13
Full
Oct 21
Last Quarter

Hourly Weather History & Observations

Time (EDT) Temp. Heat Index Dew Point Humidity Pressure Visibility Wind Dir Wind Speed Gust Speed Precip Events Conditions
12:53 AM 66.0 °F - 62.1 °F 87% 29.98 in 10.0 mi Calm Calm - N/A   Scattered Clouds
1:53 AM 66.0 °F - 61.0 °F 84% 29.97 in 10.0 mi South 3.5 mph - N/A   Clear
2:53 AM 66.0 °F - 61.0 °F 84% 29.97 in 10.0 mi SSW 3.5 mph - N/A   Clear
3:53 AM 64.9 °F - 61.0 °F 87% 29.96 in 9.0 mi Calm Calm - N/A   Clear
4:53 AM 64.0 °F - 59.0 °F 84% 29.96 in 10.0 mi SSW 5.8 mph - N/A   Clear
5:53 AM 66.9 °F - 59.0 °F 76% 29.95 in 10.0 mi SW 10.4 mph - N/A   Clear
6:53 AM 66.0 °F - 57.9 °F 75% 29.95 in 10.0 mi SW 9.2 mph - N/A   Clear
7:53 AM 68.0 °F - 57.9 °F 70% 29.96 in 10.0 mi SSW 5.8 mph - N/A   Clear
8:53 AM 71.1 °F - 57.9 °F 63% 29.95 in 10.0 mi SSW 11.5 mph - N/A   Clear
9:53 AM 75.9 °F - 57.0 °F 52% 29.94 in 10.0 mi SW 16.1 mph 21.9 mph N/A   Clear
10:53 AM 79.0 °F - 59.0 °F 50% 29.93 in 10.0 mi SW 10.4 mph - N/A   Clear
11:53 AM 80.1 °F 80.9 °F 60.1 °F 50% 29.91 in 10.0 mi West 20.7 mph 27.6 mph N/A   Mostly Cloudy
12:53 PM 75.9 °F - 60.1 °F 58% 29.92 in 10.0 mi WSW 12.7 mph 23.0 mph 0.00 in   Overcast
1:53 PM 75.9 °F - 62.1 °F 62% 29.90 in 10.0 mi SW 13.8 mph - N/A   Overcast
2:34 PM 72.0 °F - 64.0 °F 76% 29.92 in 8.0 mi SW 15.0 mph 25.3 mph 0.00 in Rain Light Rain
2:43 PM 73.0 °F - 64.0 °F 73% 29.91 in 10.0 mi WSW 13.8 mph 24.2 mph 0.00 in   Overcast
2:53 PM 73.9 °F - 64.0 °F 71% 29.88 in 10.0 mi WSW 13.8 mph - 0.00 in   Overcast
3:12 PM 73.9 °F - 63.0 °F 68% 29.90 in 10.0 mi WSW 13.8 mph 25.3 mph N/A   Overcast
3:53 PM 73.0 °F - 63.0 °F 71% 29.88 in 10.0 mi WSW 16.1 mph - N/A   Overcast
4:53 PM 72.0 °F - 63.0 °F 73% 29.88 in 10.0 mi WSW 13.8 mph - N/A   Overcast
5:53 PM 73.0 °F - 64.0 °F 73% 29.85 in 10.0 mi SSW 16.1 mph - N/A   Mostly Cloudy
6:53 PM 72.0 °F - 62.1 °F 71% 29.87 in 10.0 mi SW 12.7 mph 19.6 mph N/A   Overcast
7:28 PM 70.0 °F - 62.1 °F 76% 29.89 in 10.0 mi WSW 10.4 mph - N/A   Mostly Cloudy
7:35 PM 70.0 °F - 62.1 °F 76% 29.89 in 10.0 mi WSW 10.4 mph - N/A   Overcast
7:51 PM 69.8 °F - 62.6 °F 78% 29.88 in 10.0 mi WSW 9.2 mph - N/A   Mostly Cloudy
8:53 PM 68.0 °F - 62.1 °F 81% 29.87 in 10.0 mi WSW 10.4 mph - N/A   Partly Cloudy
9:53 PM 66.9 °F - 61.0 °F 81% 29.89 in 7.0 mi WNW 4.6 mph - 0.02 in Rain Light Rain
10:53 PM 66.0 °F - 60.1 °F 81% 29.90 in 10.0 mi North 4.6 mph - 0.00 in Rain Light Rain
11:53 PM 66.0 °F - 57.0 °F 73% 29.90 in 10.0 mi NNW 6.9 mph - 0.00 in   Overcast